Flag for Guatemala Weather past 2 weeks in Guatemala, Guatemala

Now
54 °F

Clear.


Feels Like: 49 °F
Forecast: 51 / 70 °F
Wind: 14 mph from North

Location: Guatemala Aeropuertola Aurora

Current Time: Jan 28, 2015 at 12:35:30 AM

Latest Report: Jan 28, 2015 at 12:00 AM


Visibility: 10 mi

Pressure: 30.36 "Hg

Humidity: 82%

Dew point: 48 °F

Location of GuatemalaLocation

Historic Weather in Guatemala — Graph

°F

Guatemala temperature yesterday

Maximum temperature yesterday: 70 °F (at 3:00 PM)
Minimum temperature yesterday: 54 °F (at 6:00 AM)
Average temperature yesterday: 60 °F

Past Weeks' High & Low Weather Summary

 TemperatureHumidityPressure
High77 °F (Jan 20, 1:00 PM)100% (Jan 15, 3:00 AM)30.42 "Hg (Jan 15, 3:00 AM)
Low52 °F (Jan 20, 5:00 AM)42% (Jan 20, 1:00 PM)29.95 "Hg (Jan 25, 4:00 AM)
Average63 °F77%30.31 "Hg
* Reported Jan 12 11:00 PM — Jan 27 11:00 PM, Guatemala, Weather by CustomWeather, © 2014

Note: Actual official high and low records may vary slightly from our data, if they occured in-between our weather recording intervals... More about our weather records

Advertising

Guatemala weather history for previous 24 hours

 ConditionsComfort  
Time TempWeatherWind HumidityBarometerVisibility
11:00 PM
Jan 27
54 °FPassing clouds.18 mph82%30.39 "HgN/A
10:00 PM55 °FPassing clouds.21 mph82%30.39 "HgN/A
9:00 PM57 °FPartly cloudy.21 mph82%30.36 "HgN/A
8:00 PM57 °FPassing clouds.21 mph82%30.33 "HgN/A
7:00 PM59 °FClear.21 mph77%30.30 "Hg10 mi
6:00 PM63 °FClear.14 mph68%30.30 "Hg10 mi
5:00 PM68 °FSunny.18 mph56%30.27 "Hg10 mi
4:00 PM70 °FSunny.18 mph53%30.27 "Hg10 mi
3:00 PM70 °FSunny.18 mph94%30.27 "Hg10 mi
2:00 PM68 °FPassing clouds.16 mph56%30.27 "HgN/A
1:00 PM68 °FPassing clouds.18 mph56%30.33 "HgN/A
12:00 PM66 °FPassing clouds.18 mph56%30.36 "HgN/A
11:00 AM64 °FScattered clouds.18 mph60%30.39 "HgN/A
10:00 AM63 °FScattered clouds.18 mph64%30.39 "HgN/A
9:00 AM59 °FPassing clouds.18 mph72%30.39 "HgN/A
8:00 AM55 °FPassing clouds.16 mph82%30.39 "HgN/A
7:00 AM54 °FPassing clouds.14 mph88%30.36 "HgN/A
6:00 AM54 °FPassing clouds.12 mph88%30.36 "HgN/A
5:00 AM55 °FPassing clouds.12 mph82%30.33 "HgN/A
4:00 AM55 °FPassing clouds.14 mph82%30.33 "HgN/A
3:00 AM55 °FClear.16 mph82%30.33 "Hg10 mi
2:00 AM55 °FPassing clouds.14 mph82%30.33 "HgN/A
1:00 AM55 °FPassing clouds.14 mph88%30.36 "HgN/A
12:00 AM55 °FPassing clouds.14 mph88%30.36 "HgN/A
Weather by CustomWeather, © 2014

See weather overviewHow to use our weather pages